This demonstration page uses our WeatherBlox Daily Observations layout. Learn more.

Left ArrowRight Arrow

Hourly Observations for April 17, 2018

Temp ( °F °C ) Dew Point ( °F °C ) Humidity (%) Winds ( mph kmh ) Pressure ( in mb ) Visibility ( mi km ) Precip ( " mm )
12:53 am 00:53 Cloudy with Light Wintry Mix 34 1.1 26 -3.3 73 73 WSW 10 17 29.99 1016 10 16 0.00 0.03
1:53 am 01:53 Cloudy 34 1.1 26 -3.3 73 73 W 9 15 29.98 1015 9 14 0.00 0.03
2:53 am 02:53 Cloudy 34 1.1 25 -3.9 70 70 WSW 9 15 29.97 1015 10 16 0.00 0.03
3:53 am 03:53 Cloudy 34 1.1 25 -3.9 70 70 W 12 19 29.96 1015 10 16 0.00 0.00
4:53 am 04:53 Cloudy 35 1.7 25 -3.9 67 67 WSW 9 15 29.95 1014 10 16 0.00 0.00
5:53 am 05:53 Cloudy 35 1.7 25 -3.9 67 67 WSW 8 13 29.94 1014 10 16 0.00 0.00
6:53 am 06:53 Cloudy 35 1.7 26 -3.3 70 70 WSW 10 17 29.94 1014 10 16 0.00 0.00
7:48 am 07:48 Cloudy 36 2 27 -3 70 70 W 10 17 29.97 1015 10 16 0.00 0.00
7:53 am 07:53 Cloudy 36 2.2 27 -2.8 70 70 W 14 22 29.95 1014 10 16 0.00 0.00
8:53 am 08:53 Cloudy 36 2.2 26 -3.3 67 67 W 10 17 29.95 1014 10 16 0.00 0.00
9:53 am 09:53 Cloudy 36 2.2 26 -3.3 67 67 W 10 17 29.94 1014 10 16 0.00 0.00
10:53 am 10:53 Cloudy 36 2.2 26 -3.3 67 67 W 14 22 29.93 1014 10 16 0.00 0.00
11:53 am 11:53 Cloudy 38 3.3 27 -2.8 65 65 W 10 17 29.93 1014 10 16 0.00 0.00
12:18 pm 12:18 Cloudy 39 3.9 27 -2.8 62 62 W 14 22 29.94 1014 10 16 0.00 0.00
12:53 pm 12:53 Mostly Cloudy 39 3.9 27 -2.8 62 62 WSW 16 26 29.93 1014 10 16 0.00 0.00
1:53 pm 13:53 Mostly Cloudy 42 5.6 27 -2.8 55 55 W 13 20 29.91 1013 10 16 0.00 0.00
2:53 pm 14:53 Sunny 45 7.2 28 -2.2 52 52 WNW 15 24 29.91 1013 10 16 0.00 0.00
3:53 pm 15:53 Partly Cloudy 45 7.2 29 -1.7 54 54 WNW 15 24 29.91 1013 10 16 0.00 0.00
4:53 pm 16:53 Partly Cloudy 47 8.3 29 -1.7 50 50 NW 12 19 29.90 1013 10 16 0.00 0.00
5:53 pm 17:53 Mostly Sunny 47 8.3 29 -1.7 50 50 NW 8 13 29.89 1012 10 16 0.00 0.00
6:53 pm 18:53 Sunny 47 8.3 29 -1.7 50 50 NNW 9 15 29.90 1013 10 16 0.00 0.00
7:53 pm 19:53 Sunny 43 6.1 28 -2.2 56 56 N 8 13 29.91 1013 10 16 0.00 0.00
8:53 pm 20:53 Clear 40 4.4 29 -1.7 65 65 N 7 11 29.92 1013 10 16 0.00 0.00
9:53 pm 21:53 Clear 37 2.8 30 -1.1 76 76 NNE 3 6 29.93 1014 10 16 0.00 0.00
10:53 pm 22:53 Clear 37 2.8 28 -2.2 70 70 NNE 6 9 29.95 1014 10 16 0.00 0.00
11:53 pm 23:53 Clear 34 1.1 30 -1.1 85 85 Calm 29.95 1014 10 16 0.00 0.00

Powered by AerisWeather